Tracking 30923 objects as of 1-Jul-2025
HD Live streaming from Space Station
objects crossing your sky now

CZ-4C R/B

Track CZ-4C R/B now!
10-day predictions


NORAD ID: 54701
Int'l Code: 2022-169C
Perigee: 661.3 km
Apogee: 795.6 km
Inclination: 60.0 °
Period: 99.2 minutes
Semi major axis: 7099 km
RCS: Unknown
Launch date: December 12, 2022
Source: People's Republic of China (PRC)
Launch site: Jiuquan Satellite Launch Center, China (JSC)

Note: This is a ROCKET BODY
Your satellite tracking list
Your tracking list is empty




NASA's NSSDC Master Catalog

Two Line Element Set (TLE):
1 54701U 22169C   25181.43069706  .00000024  00000-0  44091-4 0  9997
2 54701  59.9539 210.3942 0094575 117.3028 243.7686 14.51317939135055
Source of the keplerian elements: AFSPC